TimeCDT,TemperatureF,Dew PointF,Humidity,Sea Level PressureIn,VisibilityMPH,Wind Direction,Wind SpeedMPH,Gust SpeedMPH,PrecipitationIn,Events,Conditions,WindDirDegrees,DateUTC
12:53 AM,21.0,14.0,74,30.32,10.0,West,3.5,-,N/A,,Clear,270,2013-03-29 05:53:00
1:53 AM,21.0,14.0,74,30.33,10.0,Calm,Calm,-,N/A,,Clear,0,2013-03-29 06:53:00
2:53 AM,19.9,12.9,74,30.32,10.0,Calm,Calm,-,N/A,,Clear,0,2013-03-29 07:53:00
3:53 AM,18.0,12.9,81,30.32,10.0,Calm,Calm,-,N/A,,Clear,0,2013-03-29 08:53:00
4:53 AM,15.1,10.0,80,30.33,10.0,Calm,Calm,-,N/A,,Clear,0,2013-03-29 09:53:00
5:53 AM,18.0,10.9,74,30.33,10.0,Calm,Calm,-,N/A,,Clear,0,2013-03-29 10:53:00
6:53 AM,18.0,12.0,78,30.34,10.0,Calm,Calm,-,N/A,,Clear,0,2013-03-29 11:53:00
7:53 AM,19.9,14.0,78,30.35,10.0,Calm,Calm,-,N/A,,Clear,0,2013-03-29 12:53:00
8:53 AM,27.0,18.0,69,30.34,10.0,Calm,Calm,-,N/A,,Clear,0,2013-03-29 13:53:00
9:53 AM,36.0,24.1,62,30.33,10.0,Calm,Calm,-,N/A,,Clear,0,2013-03-29 14:53:00
10:53 AM,42.1,16.0,35,30.33,10.0,Variable,5.8,-,N/A,,Clear,0,2013-03-29 15:53:00
11:53 AM,44.1,16.0,32,30.32,10.0,West,3.5,-,N/A,,Clear,280,2013-03-29 16:53:00
12:53 PM,46.0,12.9,26,30.30,10.0,Calm,Calm,-,N/A,,Clear,0,2013-03-29 17:53:00
1:53 PM,45.0,19.9,37,30.29,10.0,WSW,6.9,-,N/A,,Clear,250,2013-03-29 18:53:00
2:53 PM,46.9,16.0,29,30.26,10.0,Variable,4.6,-,N/A,,Clear,0,2013-03-29 19:53:00
3:53 PM,46.9,17.1,30,30.24,10.0,SSW,5.8,-,N/A,,Clear,200,2013-03-29 20:53:00
4:53 PM,46.9,18.0,32,30.23,10.0,SSW,6.9,-,N/A,,Clear,210,2013-03-29 21:53:00
5:53 PM,46.9,19.0,33,30.22,10.0,SW,4.6,-,N/A,,Clear,230,2013-03-29 22:53:00
6:53 PM,42.1,21.0,43,30.23,10.0,WSW,8.1,-,N/A,,Clear,250,2013-03-29 23:53:00
7:53 PM,41.0,19.9,43,30.22,10.0,SSW,5.8,-,N/A,,Clear,210,2013-03-30 00:53:00
8:53 PM,37.9,19.0,47,30.22,10.0,SSW,5.8,-,N/A,,Partly Cloudy,210,2013-03-30 01:53:00
9:53 PM,36.0,19.0,50,30.22,10.0,SSW,5.8,-,N/A,,Scattered Clouds,210,2013-03-30 02:53:00
10:53 PM,34.0,17.1,50,30.20,10.0,Calm,Calm,-,N/A,,Clear,0,2013-03-30 03:53:00
11:53 PM,33.1,17.1,52,30.18,10.0,SSW,4.6,-,N/A,,Clear,210,2013-03-30 04:53:00